This is the latest recevied weather packets stored in our database for station/object WX6YYZ. If no packets are shown the sender has not sent any weather packets the latest 10 day(s).
| Time | Temp. | Humidity | Pressure | Rain* | Wind** | Luminosity | Snow |
|---|---|---|---|---|---|---|---|
| 1777773308 | 22.78° C | 58% | 1010.2 hPa | 0 mm | - | - | - |
| 1777772105 | 22.78° C | 57% | 1009.8 hPa | 0 mm | - | - | - |
| 1777771804 | 23.33° C | 57% | 1009.8 hPa | 0 mm | - | - | - |
| 1777770601 | 23.89° C | 56% | 1009.8 hPa | 0 mm | - | - | - |
| 1777769698 | 23.89° C | 55% | 1009.8 hPa | 0 mm | - | - | - |
| 1777768733 | 23.89° C | 55% | 1010.2 hPa | 0 mm | - | - | - |
| 1777767831 | 24.44° C | 54% | 1010.2 hPa | 0 mm | - | - | - |
| 1777767530 | 24.44° C | 53% | 1010.2 hPa | 0 mm | - | - | - |
| 1777767198 | 24.44° C | 51% | 1010.2 hPa | 0 mm | - | - | - |
| 1777766565 | 23.89° C | 54% | 1009.8 hPa | 0 mm | - | - | - |
| 1777766265 | 23.89° C | 53% | 1010.2 hPa | 0 mm | - | - | - |
| 1777764126 | 24.44° C | 53% | 1010.2 hPa | 0 mm | - | - | - |
| 1777758946 | 25° C | 54% | 1011.2 hPa | 0 mm | - | - | - |
| 1777758313 | 25° C | 53% | 1011.5 hPa | 0 mm | - | - | - |
| 1777751204 | 22.78° C | 62% | 1012.9 hPa | 0 mm | - | - | - |
| 1777750000 | 22.22° C | 64% | 1013.5 hPa | 0 mm | - | - | - |
| 1777747861 | 21.11° C | 70% | 1013.9 hPa | 0 mm | - | - | - |
| 1777744852 | 17.78° C | 81% | 1014.6 hPa | 0 mm | - | - | - |
| 1777744250 | 17.78° C | 83% | 1014.6 hPa | 0 mm | - | - | - |
| 1777743617 | 16.67° C | 86% | 1014.9 hPa | 0 mm | - | - | - |
| 1777743015 | 16.67° C | 86% | 1014.9 hPa | 0 mm | - | - | - |
| 1777741510 | 16.11° C | 91% | 1014.9 hPa | 0 mm | - | - | - |
| 1777739370 | 14.44° C | 94% | 1014.9 hPa | 0 mm | - | - | - |
| 1777738769 | 14.44° C | 94% | 1015.2 hPa | 0 mm | - | - | - |
| 1777736235 | 13.89° C | 94% | 1015.2 hPa | 0 mm | - | - | - |
* Rain latest hour (hover to see other rain measurements)
** Current wind speed in m/s (hover to see current wind gust speed)